Regional Weather Roundup
Issued by NWS

Home | Current Version | Previous Version | Text Only | Print | Product List | Glossary Off
Versions: 1 2 3 4 5 6 7 8 9 10 11 12 13 14 15 16 17 18 19 20 21 22 23 24 25 26 27 28 29 30 31 32 33 34 35 36 37 38 39 40 41 42 43 44 45 46 47 48 49 50

000
ASUS43 KDTX 011410
RWRMI
MICHIGAN HOURLY REGIONAL WEATHER ROUNDUP
NATIONAL WEATHER SERVICE DETROIT/PONTIAC MI
900 AM EST SUN MAR 01 2015

NOTE: "FAIR" INDICATES FEW OR NO CLOUDS BELOW 12,000 FEET WITH NO
SIGNIFICANT WEATHER AND/OR OBSTRUCTION TO VISIBILITY.

MIZ047>049-052>055-059>063-066>070-074>076-081>083-011500-
SOUTHEAST LOWER MICHIGAN

CITY           SKY/WX    TMP DP  RH WIND       PRES   REMARKS
ADRIAN         CLOUDY    16  12  84 N3        30.39F
ALMA           LGT SNOW  13  11  94 S5        30.38S
ANN ARBOR      CLOUDY    17  13  84 CALM      30.38F
BAD AXE        MOSUNNY   10   8  89 S5        30.38F
DETROIT CITY   CLOUDY    18  13  80 CALM      30.40S
DETROIT        CLOUDY    19  16  86 CALM      30.40F
FLINT          MOSUNNY   14  10  84 SW5       30.39S
GROSSE ILE     FLURRIES  18  14  86 CALM      30.39S
HILLSDALE      CLOUDY    16  13  88 CALM      30.35S
HOWELL         MOSUNNY   12  10  92 CALM      30.37S FOG

CITY           SKY/WX    TMP DP  RH WIND       PRES   REMARKS
JACKSON        CLOUDY    15  11  83 CALM      30.37S
LAMBERTVILLE   LGT SNOW  21  18  86 CALM      30.40S
LANSING        MOSUNNY   13  10  88 S6        30.38S FOG
LAPEER         NOT AVBL
MASON          MOSUNNY    6   2  86 S3        30.38S
MONROE         LGT SNOW  18  14  86 N3        30.38F
MT. CLEMENS    LGT SNOW  15  11  86 CALM      30.38S FOG
PONTIAC        PTSUNNY   15  11  83 S3        30.36S
PORT HOPE        N/A     14   7  73 SW7       30.37F
PORT HURON     LGT SNOW  14  12  92 CALM      30.41R
TRI CITIES     CLOUDY    13   9  84 SW6       30.39S
YPSILANTI      CLOUDY    20  14  77 CALM      30.39S
$$
MIZ043>046-050>051-056>058-064>065-071>073-077>080-011500-
SOUTHWEST LOWER MICHIGAN

CITY           SKY/WX    TMP DP  RH WIND       PRES   REMARKS
BATTLE CREEK   PTSUNNY   11   8  88 S5        30.37F FOG
BENTON HARBOR  CLOUDY    15  13  91 SE5       30.38S FOG
BIG RAPIDS     LGT SNOW  14  11  91 S5        30.32F
COLDWATER      CLOUDY    16  12  84 CALM      30.36S
HOLLAND        CLOUDY    14  11  87 S5        30.37F FOG
GRAND RAPIDS   LGT SNOW  12   9  87 S5        30.37S FOG
KALAMAZOO      PTSUNNY   14  11  87 CALM      30.37F FOG
MARSHALL       CLOUDY    13  10  88 CALM      30.37S
MUSKEGON       LGT SNOW  17  12  80 S5        30.37S VSB 1
$$
MIZ016>042-011500-
NORTHERN LOWER MICHIGAN

CITY           SKY/WX    TMP DP  RH WIND       PRES   REMARKS
ALPENA         CLOUDY    16   2  54 SW7       30.33S
BEAVER ISLAND  MOSUNNY   17   9  70 W9        30.27S
BELLAIRE       LGT SNOW  17  12  82 S3        30.31F
CADILLAC       LGT SNOW  11   8  86 S3        30.26F
CHARLEVOIX     MOSUNNY   17  12  83 CALM      30.32F
FRANKFORT      LGT SNOW  20  15  79 W6        30.31F
GAYLORD        CLOUDY    12   9  87 SW6       30.25F FOG
GRAYLING       FLURRIES  13   7  77 SW5       30.28F
HARBOR SPRINGS CLOUDY    17  11  80 SW8       30.29S
HOUGHTON LAKE  CLOUDY    12   6  77 SW6       30.30F
MANISTEE       CLOUDY    19  12  73 W5        30.32S
OSCODA         MOSUNNY   13   6  72 SW9       30.35F
PELLSTON       PTSUNNY   17  10  74 SW9       30.29S
TRAVERSE CITY  LGT SNOW  17  11  77 S3        30.30F
$$
MIZ007>008-015-011500-
EASTERN UPPER MICHIGAN

CITY           SKY/WX    TMP DP  RH WIND       PRES   REMARKS
KINROSS        MOSUNNY   16  10  79 SW5       30.24F
MACKINAC ISLAN PTSUNNY   16   8  72 S7        30.26S
NEWBERRY       PTSUNNY   12   5  72 SW8       30.22S
S. S. MARIE    MOSUNNY   10   7  87 CALM      30.24F
$$
MIZ004>006-011>014-085-011500-
CENTRAL UPPER MICHIGAN

CITY           SKY/WX    TMP DP  RH WIND       PRES   REMARKS
MANISTIQUE     SUNNY     16   5  62 SW7       30.25S
ESCANABA       SUNNY     12   1  62 SW12      30.26F WCI  -2
MENOMINEE      MOSUNNY   12   3  67 W9        30.27S
SAWYER-GWINN   MOSUNNY    9   0  66 SW7       30.16F
$$
MIZ001>003-009>011-084-011500-
WESTERN UPPER MICHIGAN

CITY           SKY/WX    TMP DP  RH WIND       PRES   REMARKS
IRON MOUNTAIN  SUNNY      6  -2  69 SE6       30.18F
HOUGHTON       CLOUDY    11   4  73 S6        30.11S
COPPER HARBOR    N/A     14   4  64 W7        30.13S
IRONWOOD       CLOUDY    12   9  85 SW9       30.11S
$$

ABBREVIATIONS USED IN REMARKS
   TC - TEMPERATURE IN CELSIUS
  WCI - WIND CHILL INDEX
   HX - HEAT INDEX
  VSB - VISIBILITY




USA.gov is the U.S. government's official web portal to all federal, state and local government web resources and services.